"Pseudo-MPEC" for P10Sz9d

Created 2019 Oct 13 18:07:19 UT using Find_Orb

Click here for an explanation of pseudo-MPECs

 
 Astrometry: 
     P10Sz9d  C2019 10 07R%t\H-I@M49Lgf)%*T-fv?AEe!H'KgYPAstrometry;5gB68J%QvF51
     P10Sz9d  C2019 10 07l=%L!ZYA0RcUXEiredacted;EXt:ma2jQJ:V!6#rpOtPb;::XpXwF51
     P10Sz9d  C2019 10 07NW@Mi:A]UTM-$A=ZW@RMIW1BrLB^Qprw+frBBLI)+jFegqO6xa@3F51
     P10Sz9d  C2019 10 07NtU2%(RhNdclick:!4C,XjKZ1Bd!@K#:^QimorF!Nh?S4WAW=y!hF51
     P10Sz9d KC2019 10 0842eR4+W7oCCba8ZambP2]v$X9hereW3(EFGw4,T%,IHOecAy%4a/H21
     P10Sz9d KC2019 10 08!l!J3o[GQ'GxX[+3`k6cA!++=:,w,aS0OHlPMwx+2)rLuc5pef@!H21
     P10Sz9d KC2019 10 08q7W4sg3H6Yxj`OhEaL3!'#KFs7@t/X6fF9for_explanation4a$H21
     P10Sz9d KC2019 10 09.42650 04 49 45.43 -02 39 49.2    ~A9BM 20.9 RoNEOCP291
     P10Sz9d KC2019 10 09.43311 04 49 45.32 -02 39 50.6    ~A9BM 20.8 RoNEOCP291
     P10Sz9d KC2019 10 09.43974 04 49 45.18 -02 39 52.0    ~A9BM 21.0 RoNEOCP291
     P10Sz9d KC2019 10 10.34977 04 49 28.47 -02 42 54.8 Duplicat!21.0 RoNEOCP691
     P10Sz9d KC2019 10 10.34977 04 49 28.51 -02 42 55.5 Duplicat!21.1 RoNEOCP691
     P10Sz9d KC2019 10 10.36066 04 49 28.26 -02 42 57.0    ~AA9q 20.9 RoNEOCP691
     P10Sz9d KC2019 10 10.38246 04 49 27.80 -02 43 01.5    ~AAIM 21.3 RoNEOCP691

Station data:
(291) LPL/Spacewatch II  (N31.961669 W111.599905)  US/Arizona.  Observers J.
   V. Scotti, R. S. McMillan. 1.8-m f/2.7 reflector + CCD.
(691) Steward Observatory, Kitt Peak - Spacewatch  (N31.962174 W111.600327)
   US/Arizona.  Observer J. V. Scotti. 0.9-m f/3 reflector + CCD.
(F51) Pan-STARRS 1, Haleakala  (N20.707235 W156.255910)  US/Hawaii.
   Observers N. Primak, A. Schultz, S. Watters, J. Thiel, T. Goggia. Measurer
   PS1 Science Consortium. 1.8-m Ritchey-Chrétien + CCD.
(H21) Astronomical Research Observatory, Westfield  (N39.483057 W87.968270)
   US/Illinois. 0.76-m f/3.0 astrograph + CCD.

Orbital elements:  P10Sz9d
   Perihelion 2019 Jan 27.913856 +/- 42.1 TT = 21:55:57 (JD 2458511.413856)
Epoch 2019 Oct 10.0 TT = JDT 2458766.5   Earth MOID: 0.5815   AutoNEOCP
M  54.64403544 +/- 22               (J2000 ecliptic)
n   0.21421796 +/- 0.0467           Peri.  202.73798 +/- 9
a   2.76629687 +/- 0.402            Node   101.04055 +/- 2.7
e   0.4287017 +/- 0.0847            Incl.   22.98238 +/- 0.9
P   4.60                   H 17.1   G  0.15   U 10.7  
q 1.58038068 +/- 0.0196    Q 3.95221306 +/- 0.831
12 of 14 observations 2019 Oct. 7-10; mean residual 0".09
Residuals in arcseconds: 
191007 F51  .03-  .06-    191008 H21  .14+  .07+    191010 691( .13-  .06+)   
191007 F51  .05-  .04+    191008 H21  .19+  .15-    191010 691( .47+  .64-)   
191007 F51  .04-  .02+    191009 291  .24-  .10+    191010 691  .10+  .04+    
191007 F51  .07-  .03+    191009 291  .03+  .04+    191010 691  .01+  .09-    
191008 H21  .06+  .02-    191009 291  .15-  .01-    

Ephemerides (geocentric):
Date (UTC) HH   RA              Dec         delta   r     elong  mag " sig PA
---- -- -- --  -------------   -----------  ------ ------ -----  --- ---- ---
2019 10 13 18  04 48 12.039   -02 53 50.63  1.8419 2.5523 125.3 21.4 2.96 144
2019 10 13 19  04 48 10.974   -02 53 58.42  1.8417 2.5525 125.4 21.4 3.01 144
2019 10 13 20  04 48 09.907   -02 54 06.21  1.8415 2.5527 125.4 21.4 3.06 144
2019 10 13 21  04 48 08.836   -02 54 13.99  1.8413 2.5529 125.5 21.4 3.11 144
2019 10 13 22  04 48 07.763   -02 54 21.76  1.8411 2.5531 125.5 21.4 3.16 145
2019 10 13 23  04 48 06.686   -02 54 29.52  1.8409 2.5533 125.5 21.4 3.21 145
2019 10 14 00  04 48 05.606   -02 54 37.28  1.8407 2.5535 125.6 21.4 3.26 145
2019 10 14 01  04 48 04.523   -02 54 45.03  1.8405 2.5537 125.6 21.4 3.32 145
2019 10 14 02  04 48 03.437   -02 54 52.77  1.8403 2.5539 125.7 21.4 3.37 145
2019 10 14 03  04 48 02.348   -02 55 00.50  1.8401 2.5541 125.7 21.4 3.42 145
2019 10 14 04  04 48 01.255   -02 55 08.23  1.8399 2.5543 125.7 21.4 3.47 145
2019 10 14 05  04 48 00.160   -02 55 15.95  1.8397 2.5545 125.8 21.4 3.53 145
2019 10 14 06  04 47 59.061   -02 55 23.66  1.8395 2.5547 125.8 21.4 3.58 145
2019 10 14 07  04 47 57.960   -02 55 31.36  1.8393 2.5549 125.9 21.4 3.63 145
2019 10 14 08  04 47 56.855   -02 55 39.06  1.8391 2.5551 125.9 21.4 3.69 145
2019 10 14 09  04 47 55.747   -02 55 46.75  1.8389 2.5553 125.9 21.4 3.74 146
2019 10 14 10  04 47 54.636   -02 55 54.43  1.8387 2.5555 126.0 21.4 3.80 146
2019 10 14 11  04 47 53.522   -02 56 02.11  1.8385 2.5557 126.0 21.4 3.85 146
2019 10 14 12  04 47 52.404   -02 56 09.77  1.8383 2.5559 126.1 21.4 3.91 146
2019 10 14 13  04 47 51.284   -02 56 17.43  1.8381 2.5561 126.1 21.4 3.97 146
2019 10 14 14  04 47 50.160   -02 56 25.08  1.8379 2.5563 126.1 21.4 4.02 146
2019 10 14 15  04 47 49.034   -02 56 32.73  1.8377 2.5564 126.2 21.4 4.08 146
2019 10 14 16  04 47 47.904   -02 56 40.36  1.8375 2.5566 126.2 21.4 4.14 146
2019 10 14 17  04 47 46.771   -02 56 47.99  1.8373 2.5568 126.2 21.4 4.19 146
2019 10 14 18  04 47 45.635   -02 56 55.61  1.8371 2.5570 126.3 21.4 4.25 146
2019 10 14 19  04 47 44.496   -02 57 03.22  1.8369 2.5572 126.3 21.4 4.31 146
2019 10 14 20  04 47 43.354   -02 57 10.83  1.8367 2.5574 126.4 21.4 4.37 147
2019 10 14 21  04 47 42.209   -02 57 18.42  1.8365 2.5576 126.4 21.4 4.43 147
2019 10 14 22  04 47 41.061   -02 57 26.01  1.8363 2.5578 126.4 21.4 4.49 147
2019 10 14 23  04 47 39.909   -02 57 33.59  1.8361 2.5580 126.5 21.4 4.55 147
2019 10 15 00  04 47 38.755   -02 57 41.17  1.8359 2.5582 126.5 21.4 4.61 147
2019 10 15 01  04 47 37.597   -02 57 48.73  1.8357 2.5584 126.6 21.4 4.67 147
2019 10 15 02  04 47 36.436   -02 57 56.29  1.8355 2.5586 126.6 21.4 4.73 147
2019 10 15 03  04 47 35.272   -02 58 03.84  1.8353 2.5588 126.6 21.4 4.79 147
2019 10 15 04  04 47 34.106   -02 58 11.38  1.8351 2.5590 126.7 21.4 4.85 147
2019 10 15 05  04 47 32.936   -02 58 18.92  1.8349 2.5592 126.7 21.4 4.91 147
2019 10 15 06  04 47 31.762   -02 58 26.44  1.8347 2.5594 126.8 21.4 4.97 147
2019 10 15 07  04 47 30.586   -02 58 33.96  1.8345 2.5596 126.8 21.4 5.03 147
2019 10 15 08  04 47 29.407   -02 58 41.47  1.8343 2.5598 126.8 21.4 5.10 148
2019 10 15 09  04 47 28.224   -02 58 48.97  1.8341 2.5600 126.9 21.4 5.16 148
2019 10 15 10  04 47 27.039   -02 58 56.47  1.8339 2.5602 126.9 21.4 5.22 148
2019 10 15 11  04 47 25.850   -02 59 03.95  1.8337 2.5604 127.0 21.4 5.29 148
2019 10 15 12  04 47 24.659   -02 59 11.43  1.8335 2.5606 127.0 21.4 5.35 148
2019 10 15 13  04 47 23.464   -02 59 18.90  1.8333 2.5608 127.0 21.4 5.41 148
2019 10 15 14  04 47 22.266   -02 59 26.36  1.8331 2.5610 127.1 21.4 5.48 148
2019 10 15 15  04 47 21.065   -02 59 33.81  1.8329 2.5612 127.1 21.4 5.54 148
2019 10 15 16  04 47 19.861   -02 59 41.26  1.8327 2.5614 127.2 21.4 5.61 148
2019 10 15 17  04 47 18.654   -02 59 48.69  1.8325 2.5616 127.2 21.4 5.67 148